This is the latest recevied weather packets stored in our database for station/object KN4DS-3. If no packets are shown the sender has not sent any weather packets the latest 10 day(s).
| Time | Temp. | Humidity | Pressure | Rain* | Wind** | Luminosity | Snow |
|---|---|---|---|---|---|---|---|
| 1777941904 | 18.89° C | 52% | 1015.5 hPa | 0 mm | - | - | - |
| 1777941604 | 19.44° C | 49% | 1015.5 hPa | 0 mm | - | - | - |
| 1777941304 | 19.44° C | 48% | 1015.4 hPa | 0 mm | - | - | - |
| 1777941005 | 20° C | 47% | 1015.3 hPa | 0 mm | - | - | - |
| 1777940704 | 20.56° C | 46% | 1015.3 hPa | 0 mm | - | - | - |
| 1777940404 | 20.56° C | 44% | 1015.3 hPa | 0 mm | - | - | - |
| 1777940104 | 21.11° C | 43% | 1015.2 hPa | 0 mm | - | - | - |
| 1777939805 | 21.67° C | 43% | 1015.2 hPa | 0 mm | - | - | - |
| 1777939505 | 21.67° C | 41% | 1015.2 hPa | 0 mm | - | - | - |
| 1777939204 | 22.22° C | 40% | 1015.2 hPa | 0 mm | - | - | - |
| 1777938904 | 22.78° C | 39% | 1015.2 hPa | 0 mm | - | - | - |
| 1777938604 | 23.33° C | 39% | 1015.2 hPa | 0 mm | - | - | - |
| 1777938304 | 23.89° C | 35% | 1015.3 hPa | 0 mm | - | - | - |
| 1777938004 | 23.89° C | 33% | 1015.2 hPa | 0 mm | - | - | - |
| 1777937704 | 23.89° C | 34% | 1015.3 hPa | 0 mm | - | - | - |
| 1777937404 | 24.44° C | 34% | 1015.2 hPa | 0 mm | - | - | - |
| 1777937104 | 24.44° C | 34% | 1015.2 hPa | 0 mm | - | - | - |
| 1777936804 | 24.44° C | 34% | 1015.2 hPa | 0 mm | - | - | - |
| 1777936504 | 24.44° C | 33% | 1015.1 hPa | 0 mm | - | - | - |
| 1777936204 | 24.44° C | 33% | 1015.1 hPa | 0 mm | - | - | - |
| 1777935904 | 24.44° C | 32% | 1015.1 hPa | 0 mm | - | - | - |
| 1777935604 | 25° C | 31% | 1015.1 hPa | 0 mm | - | - | - |
| 1777935304 | 25° C | 32% | 1015 hPa | 0 mm | - | - | - |
| 1777935004 | 25° C | 31% | 1015 hPa | 0 mm | - | - | - |
| 1777934704 | 24.44° C | 30% | 1014.9 hPa | 0 mm | - | - | - |
* Rain latest hour (hover to see other rain measurements)
** Current wind speed in m/s (hover to see current wind gust speed)